#timestamp,LO_Frequency,Hit,StdDev 
1556344815.3,286046998.9,N
1556344835.2,286046998.1,N
1556344855.0,286047000.6,N
1556344855.9,286047000.6,N
1556344875.8,286047000.7,N
1556344895.6,286046998.1,N
1556344915.4,286047000.0,N
1556344935.3,286047001.4,N
1556344955.1,286047001.4,N
1556344975.9,286047001.9,N
1556344995.7,286047001.9,N
1556345015.5,286047002.1,N
1556345035.4,286046999.8,N
1556345055.2,286047002.1,N
1556345075.0,286047002.5,N
1556345075.9,286047002.5,N
1556345095.8,286047000.7,N
1556345115.6,286046998.1,N
1556345135.5,286046998.5,N
1556345155.3,286046998.3,N
1556345175.1,286046999.3,N
1556345195.9,286046999.5,N
1556345215.7,286046998.7,N
1556345235.5,286047000.7,N
1556345255.4,286046998.1,N
1556345275.2,286047001.2,N
1556345295.1,286047000.3,N
1556345296.0,286047000.3,N
1556345315.8,286047001.0,N
1556345335.6,286047000.0,N
1556345355.5,286047000.3,N
1556345375.3,286047001.8,N
1556345395.2,286047002.4,N
1556345415.9,286047002.7,N
1556345435.7,286047002.3,N
1556345455.6,286046998.2,N
1556345475.4,286047001.0,N
1556345495.2,286046996.5,N
1556345515.1,286046996.5,N
1556345516.0,286046996.5,N
1556345535.8,286047001.2,N
1556345555.7,286046999.9,N
1556345575.5,286046998.7,N
1556345595.3,286046998.3,N
1556345615.2,286046998.3,N
1556345635.9,286047000.0,N
1556345655.7,286047000.7,N
1556345675.6,286046999.9,N
1556345695.4,286046998.5,N
1556345715.3,286047002.8,N
1556345735.1,286047000.5,N
1556345736.0,286047000.5,N
1556345755.8,286047002.3,N
1556345775.7,286047000.0,N
1556345795.5,286046999.5,N
1556345815.3,286046996.8,N
1556345835.2,286046998.4,N
1556345855.0,286047000.6,N
1556345855.9,286047000.6,N
1556345875.8,286046998.5,N
1556345895.6,286046999.3,N
1556345915.4,286046999.0,N
1556345935.3,286046998.6,N
1556345955.1,286047001.0,N
1556345975.8,286047000.2,N
1556345995.7,286047002.6,N
1556346015.5,286047002.1,N
1556346035.4,286047002.3,N
1556346055.2,286046999.7,N
1556346075.0,286046999.9,N
1556346075.9,286046999.9,N
1556346095.8,286046998.4,N
1556346115.6,286046998.1,N
1556346135.4,286046998.2,N
1556346155.3,286046998.2,N
1556346175.1,286047001.1,N
1556346195.9,286046998.3,N
1556346215.7,286046998.9,N
1556346235.5,286046997.3,N
1556346255.4,286046998.9,N
1556346275.2,286046999.4,N
1556346295.0,286046999.5,N
1556346295.9,286046999.5,N
1556346315.8,286046997.6,N
1556346335.6,286046995.3,Y
1556346355.5,286046997.6,P
1556346375.3,286046997.0,P
1556346395.1,286046999.1,N
1556346415.9,286046998.4,N
1556346435.7,286046998.4,N
1556346455.6,286046999.1,N
1556346475.4,286046998.8,N
1556346495.2,286046998.8,N
1556346515.1,286046996.9,Y
1556346516.0,286046996.9,P
1556346535.8,286046998.1,N
1556346555.7,286047000.9,N
1556346575.5,286047000.1,N
1556346595.3,286047004.0,N
1556346615.2,286047003.2,N
1556346635.9,286047003.6,N
1556346655.7,286047002.0,N
1556346675.6,286047001.3,N
1556346695.4,286047001.8,N
1556346715.2,286047002.7,N
1556346735.1,286047002.7,N
1556346736.0,286047002.7,N
1556346755.8,286046999.9,N
1556346775.7,286047002.5,N
1556346795.5,286047002.6,N
1556346815.3,286047002.0,N
1556346835.2,286047004.1,N
1556346855.0,286047002.3,N
1556346855.9,286047002.3,N
1556346875.8,286047002.4,N
1556346895.6,286047002.2,N
1556346915.4,286047001.5,N
1556346935.3,286047002.8,N
1556346955.1,286047000.0,N
1556346956.0,286047000.0,N
1556346975.8,286046997.0,N
1556346995.7,286046997.1,N
1556347015.5,286046999.5,N
1556347035.3,286046999.0,N
1556347055.2,286046998.8,N
1556347075.0,286046998.9,N
1556347075.9,286046998.9,N
1556347095.8,286046998.1,N
1556347115.6,286047000.4,N
1556347135.4,286047000.8,N
1556347155.3,286046999.4,N
1556347175.2,286046999.2,N
1556347195.0,286046997.1,N
1556347195.9,286046997.1,N
1556347215.8,286046996.8,N
1556347235.6,286046997.9,N
1556347255.4,286046996.7,N
1556347275.3,286046996.9,N
1556347295.1,286046999.5,N
1556347315.9,286046999.6,N
1556347335.7,286046997.1,N
1556347355.5,286046996.8,N
1556347375.4,286046999.2,N
1556347395.2,286046998.9,N
1556347415.0,286046997.1,N
1556347415.9,286046997.1,N
1556347435.8,286046997.6,N
1556347455.6,286046997.9,N
1556347475.5,286046997.9,N
1556347495.3,286046996.8,N
1556347515.1,286046995.4,Y
1556347535.9,286046996.9,P
1556347555.7,286046999.0,N
1556347575.5,286046997.0,P
1556347595.4,286046995.5,Y
1556347615.2,286047001.0,P
1556347635.1,286047001.2,N
1556347636.0,286047001.2,N
1556347655.8,286046998.2,N
1556347675.6,286047000.7,N
1556347695.5,286047000.6,N
1556347715.3,286047001.0,N
1556347735.1,286046998.2,N
1556347755.9,286047000.6,N
1556347775.7,286047002.3,N
1556347795.6,286047002.1,N
1556347815.4,286047002.2,N
1556347835.2,286047001.8,N
1556347855.1,286047001.3,N
1556347856.0,286047001.3,N
1556347875.8,286047001.9,N
1556347895.6,286047000.1,N
1556347915.5,286047000.5,N
1556347935.3,286047000.1,N
1556347955.2,286046998.1,N
1556347975.9,286047000.5,N
1556347995.7,286047000.6,N
1556348015.6,286047000.5,N
1556348035.4,286047000.4,N
1556348055.2,286046999.9,N
1556348075.1,286047000.9,N
1556348076.0,286047000.9,N
1556348095.8,286047000.4,N
1556348115.7,286047000.0,N
1556348135.5,286047000.1,N
1556348155.3,286047004.0,Y
1556348175.2,286047002.8,P
1556348195.0,286047002.1,N
1556348195.9,286047002.1,N
1556348215.7,286047000.2,N
1556348235.6,286047000.3,N
1556348255.4,286046999.8,N
1556348275.3,286047000.5,N
1556348295.1,286047000.2,N
1556348296.0,286047000.2,N
1556348315.8,286047001.8,N
1556348335.7,286047001.9,N
1556348355.5,286047002.5,N
1556348375.4,286047004.2,Y
1556348395.2,286047000.0,P
